QPF
0.00 0.00 0.00 0.00 0.00 0.00 0.00 0.00 0.00 0.00 0.00 0.00 0.00 0.00 0.00 0.00 0.00 0.00 0.00 0.00 0.00 0.00 0.00 0.00 0.00 0.00 0.00
0.00 0.00 0.00 0.00 0.00 0.00 0.00 0.00 0.00 0.00 0.00 0.00 0.00 0.00 0.00 0.00 0.00 0.00 0.00 0.00 0.00 0.00 0.00 0.00 0.00 0.00 0.00
0.00 0.00 0.00 0.00 0.00 0.00 0.00 0.00 0.00 0.00 0.00 0.00 0.00 0.00 0.00 0.00 0.00 0.00 0.00 0.00 0.00 0.00 0.00 0.00 0.00 0.00 0.00
0.00 0.00 0.00 0.00 0.00 0.00 0.00 0.00 0.00 0.00 0.00 0.00 0.00 0.00 0.00 0.00 0.00 0.00 0.00 0.00 0.00 0.00 0.00 0.00 0.00 0.00 0.00
0.00 0.00 0.00 0.00 0.00 0.00 0.00 0.00 0.00 0.00 0.00 0.00 0.00 0.00 0.00 0.00 0.00 0.00 0.00 0.00 0.00 0.00 0.00 0.00 0.00 0.00 0.00
0.00 0.00 0.00 0.00 0.00 0.00 0.00 0.00 0.00 0.00 0.00 0.00 0.00 0.00 0.00 0.00 0.00 0.00 0.00 0.00 0.00 0.00 0.00 0.00 0.00 0.00 0.00
0.03 0.02 0.02 0.02 0.01 0.01 0.01 0.01 0.00 0.00 0.00 0.00 0.00 0.00 0.00 0.00 0.00 0.00 0.00 0.00 0.00 0.00 0.00 0.00 0.00 0.00 0.00
0.00 0.00 0.00 0.00 0.00 0.00 0.00 0.00 0.00 0.00 0.00 0.00 0.00 0.00 0.00 0.00 0.00 0.00 0.00 0.00 0.00 0.00 0.00 0.00 0.00 0.00 0.00
0.00 0.00 0.01 0.01 0.01 0.01 0.02 0.02 0.02 0.01 0.00 0.01 0.00 0.00 0.00 0.00 0.00 0.00 0.00 0.00 0.00 0.00 0.00 0.00 0.00 0.00 0.00
0.00 0.00 0.01 0.00 0.01 0.01 0.01 0.01 0.01 0.00 0.00 0.00 0.00 0.00 0.00 0.00 0.00 0.00 0.00 0.00 0.00 0.00 0.00 0.00 0.00 0.00 0.00
0.00 0.00 0.00 0.00 0.00 0.00 0.00 0.00 0.00 0.00 0.00 0.00 0.00 0.00 0.00 0.00 0.00 0.00 0.00 0.00 0.00 0.00 0.00 0.00 0.00 0.00 0.00
0.00 0.00 0.00 0.00 0.00 0.00 0.00 0.00 0.00 0.00 0.00 0.00 0.00 0.00 0.00 0.00 0.00 0.00 0.00 0.00 0.00 0.00 0.00 0.00 0.00 0.00 0.00
0.00 0.00 0.00 0.00 0.00 0.00 0.00 0.00 0.00 0.00 0.00 0.00 0.00 0.00 0.00 0.00 0.01 0.00 0.00 0.00 0.00 0.00 0.00 0.00 0.00 0.00 0.00
0.00 0.00 0.00 0.00 0.00 0.00 0.00 0.00 0.00 0.00 0.00 0.00 0.00 0.00 0.00 0.00 0.00 0.01 0.00 0.00 0.00 0.00 0.00 0.00 0.00 0.00 0.00
0.00 0.00 0.00 0.00 0.00 0.00 0.00 0.00 0.00 0.00 0.00 0.00 0.00 0.00 0.00 0.00 0.03 0.01 0.00 0.00 0.00 0.00 0.00 0.00 0.00 0.00 0.00
0.00 0.00 0.00 0.00 0.00 0.00 0.00 0.00 0.00 0.00 0.00 0.00 0.00 0.00 0.01 0.01 0.01 0.01 0.00 0.00 0.00 0.00 0.00 0.00 0.00 0.00 0.00
0.00 0.00 0.00 0.00 0.00 0.00 0.00 0.00 0.00 0.00 0.00 0.00 0.00 0.00 0.02 0.01 0.00 0.00 0.00 0.00 0.00 0.00 0.00 0.00 0.00 0.00 0.00
MSLP
1030.81 1030.52 1030.46 1030.51 1030.37 1030.10 1029.83 1029.66 1029.50 1029.16 1028.95 1028.78 1028.68 1028.67 1028.56 1028.51 1028.31 1027.99 1027.81 1027.75 1027.62 1027.49 1027.26 1027.07 1026.94 1026.93 1026.58
1030.84 1030.65 1030.51 1030.41 1030.24 1030.08 1029.55 1029.13 1029.02 1028.77 1028.48 1028.25 1028.14 1028.14 1028.09 1028.03 1027.93 1027.62 1027.44 1027.36 1027.25 1027.13 1027.01 1026.82 1026.74 1026.70 1026.53
1030.52 1030.49 1030.41 1030.29 1030.05 1029.69 1029.39 1029.05 1028.65 1028.24 1027.92 1027.67 1027.58 1027.46 1027.42 1027.44 1027.41 1027.22 1027.04 1026.87 1026.71 1026.64 1026.57 1026.48 1026.49 1026.46 1026.25
1030.33 1030.17 1030.10 1029.83 1029.88 1029.55 1029.14 1028.81 1028.50 1027.99 1027.63 1027.35 1027.17 1027.05 1026.95 1026.86 1026.70 1026.63 1026.49 1026.45 1026.33 1026.25 1026.16 1026.11 1026.08 1026.05 1025.86
1030.03 1029.86 1029.70 1029.57 1029.41 1029.09 1028.90 1028.57 1028.21 1027.90 1027.64 1027.40 1027.20 1027.03 1026.85 1026.51 1026.23 1025.96 1025.90 1025.67 1025.60 1025.57 1025.60 1025.59 1025.53 1025.44 1025.31
1029.61 1029.43 1029.24 1029.10 1028.87 1028.89 1028.68 1028.45 1028.14 1027.61 1027.35 1027.09 1026.88 1026.82 1026.58 1026.18 1025.76 1025.42 1025.11 1024.92 1024.77 1024.72 1024.79 1024.89 1024.85 1024.74 1024.61
1028.72 1028.76 1028.69 1028.62 1028.48 1028.19 1028.15 1027.88 1027.70 1027.30 1027.25 1026.77 1026.60 1026.26 1025.92 1025.58 1025.30 1024.88 1024.60 1024.27 1024.01 1023.89 1023.84 1023.87 1023.78 1023.75 1023.64
1027.75 1027.77 1027.83 1027.67 1027.56 1027.19 1027.10 1026.99 1026.77 1026.62 1026.62 1026.05 1025.91 1025.59 1025.34 1025.05 1024.78 1024.37 1024.15 1023.91 1023.52 1023.35 1023.15 1022.95 1022.70 1022.62 1022.59
1026.61 1026.33 1026.17 1026.06 1026.02 1026.27 1026.51 1026.47 1026.05 1025.85 1025.61 1025.69 1025.41 1024.98 1024.85 1024.64 1024.34 1023.99 1023.66 1023.33 1022.98 1022.80 1022.53 1022.15 1021.87 1021.72 1021.68
1026.29 1026.06 1025.83 1025.71 1025.52 1025.56 1025.67 1025.62 1025.45 1025.06 1025.11 1025.05 1024.86 1024.84 1024.53 1024.08 1023.84 1023.60 1023.36 1022.96 1022.61 1022.42 1022.22 1021.83 1021.52 1021.29 1021.28
1025.84 1025.82 1025.65 1025.44 1025.23 1025.05 1024.91 1024.90 1024.74 1024.35 1024.29 1024.13 1024.38 1024.33 1024.16 1023.67 1023.41 1023.37 1023.11 1022.80 1022.51 1022.11 1021.79 1021.45 1021.22 1020.96 1020.64
1025.30 1025.25 1025.09 1024.86 1024.62 1024.44 1024.22 1024.05 1023.92 1023.82 1023.72 1023.69 1023.63 1023.76 1023.60 1023.16 1022.98 1022.88 1022.62 1022.35 1022.08 1021.68 1021.29 1020.90 1020.46 1020.07 1019.75
1024.86 1024.77 1024.62 1024.41 1024.21 1024.10 1023.84 1023.66 1023.39 1023.21 1023.04 1022.96 1022.84 1022.86 1022.89 1022.53 1022.22 1022.11 1021.93 1021.48 1021.20 1020.91 1020.46 1020.08 1019.82 1019.54 1019.21
1024.31 1024.12 1024.14 1024.03 1023.86 1023.69 1023.56 1023.30 1023.06 1022.63 1022.32 1022.14 1022.04 1021.95 1021.83 1021.68 1021.47 1021.12 1021.03 1020.74 1020.18 1019.90 1019.52 1019.02 1018.77 1018.52 1018.25
1023.80 1023.78 1023.65 1023.48 1023.26 1023.14 1023.04 1022.85 1022.60 1022.16 1021.76 1021.46 1021.21 1020.98 1020.76 1020.62 1020.22 1019.98 1019.79 1019.50 1019.15 1018.81 1018.66 1018.06 1017.65 1017.41 1017.09
1023.22 1023.17 1023.07 1022.94 1022.72 1022.55 1022.39 1022.28 1021.96 1021.55 1021.24 1020.93 1020.71 1020.43 1019.94 1019.35 1019.12 1018.72 1018.52 1018.31 1018.06 1017.80 1017.50 1017.16 1016.53 1016.30 1015.92
1022.61 1022.53 1022.45 1022.26 1022.08 1021.90 1021.74 1021.55 1021.16 1020.85 1020.51 1020.26 1020.14 1019.92 1019.33 1018.43 1017.86 1017.57 1017.39 1017.15 1016.89 1016.53 1016.18 1015.84 1015.34 1014.94 1014.72
Thickness
5381 5388 5392 5395 5400 5405 5410 5416 5420 5425 5430 5435 5440 5443 5448 5452 5457 5464 5469 5473 5478 5483 5490 5496 5501 5506 5513
5361 5366 5370 5374 5380 5386 5391 5397 5402 5406 5413 5418 5422 5426 5431 5435 5439 5446 5451 5456 5461 5466 5472 5479 5482 5487 5494
5345 5346 5350 5354 5360 5367 5372 5378 5383 5389 5395 5400 5404 5410 5415 5419 5422 5427 5432 5438 5444 5449 5454 5460 5464 5469 5475
5330 5332 5334 5337 5341 5345 5352 5358 5363 5369 5375 5381 5385 5390 5396 5400 5407 5410 5415 5419 5425 5429 5435 5440 5444 5450 5456
5313 5316 5318 5320 5322 5327 5334 5338 5344 5348 5355 5360 5366 5370 5375 5381 5386 5392 5397 5402 5407 5412 5416 5420 5425 5431 5437
5293 5297 5300 5301 5303 5306 5311 5316 5324 5328 5331 5338 5342 5348 5353 5360 5366 5372 5378 5383 5389 5394 5398 5402 5407 5412 5418
5272 5275 5279 5279 5282 5287 5288 5294 5298 5304 5305 5316 5318 5326 5330 5337 5343 5349 5354 5360 5368 5373 5378 5382 5388 5394 5400
5257 5260 5261 5262 5263 5268 5271 5274 5279 5281 5279 5294 5295 5303 5307 5315 5318 5324 5329 5335 5343 5349 5356 5362 5369 5374 5380
5244 5248 5249 5250 5250 5251 5252 5256 5263 5264 5266 5267 5273 5282 5287 5294 5296 5298 5303 5310 5318 5324 5330 5339 5346 5352 5359
5229 5230 5231 5233 5232 5232 5235 5240 5244 5251 5249 5249 5254 5258 5263 5276 5278 5278 5282 5287 5293 5299 5305 5313 5319 5326 5335
5211 5212 5213 5214 5215 5217 5220 5222 5227 5233 5233 5235 5237 5239 5243 5257 5260 5260 5263 5266 5270 5278 5284 5289 5295 5300 5311
5195 5196 5196 5198 5200 5202 5204 5207 5210 5215 5217 5217 5223 5222 5223 5236 5241 5242 5244 5248 5252 5259 5263 5268 5276 5283 5292
5176 5178 5178 5180 5181 5183 5185 5188 5193 5196 5197 5199 5203 5205 5208 5216 5221 5225 5227 5232 5235 5241 5245 5252 5259 5265 5275
5161 5161 5161 5162 5164 5164 5167 5169 5174 5179 5179 5181 5183 5185 5190 5195 5200 5207 5206 5213 5215 5220 5226 5238 5245 5249 5256
5147 5147 5148 5149 5151 5151 5153 5155 5159 5163 5165 5165 5165 5169 5174 5178 5184 5188 5192 5195 5198 5203 5208 5221 5228 5232 5238
5137 5138 5139 5140 5141 5143 5144 5145 5149 5152 5154 5154 5154 5156 5163 5170 5171 5176 5178 5183 5186 5191 5197 5203 5213 5215 5222
5131 5131 5132 5134 5136 5137 5137 5139 5143 5145 5147 5147 5147 5147 5152 5162 5165 5166 5172 5177 5181 5186 5190 5195 5204 5210 5212